Baltimore, MD

3:41 PM EDT on July 22, 2017 (GMT -0400)
Baltimore-Washington International

Weather History for KBWI - July, 2014

Change the Weather History Date:

Sunday, July 13, 2014

  Actual Average Record
Temperature  
Mean Temperature 81 °F 77 °F  
Max Temperature 92 °F 88 °F 99 °F (1954)
Min Temperature 70 °F 67 °F 55 °F (1978)
Degree Days  
Heating Degree Days 0 0  
Month to date heating degree days 0 0  
Since 1 June heating degree days 2 15  
Since 1 July heating degree days 0 0  
Cooling Degree Days 16 12  
Month to date cooling degree days 164 154  
Year to date cooling degree days 505 476  
Since 1 June cooling degree days 420 392  
Growing Degree Days 31 (Base 50)    
Moisture  
Dew Point 69 °F    
Average Humidity 70    
Maximum Humidity 93    
Minimum Humidity 47    
Precipitation  
Precipitation 0.35 in 0.14 in 3.45 in (1975)
Month to date precipitation 1.50 1.63  
Year to date precipitation 29.07 22.12  
Snow  
Snow 0.00 in 0.00 in - ()
Month to date snowfall 0.0 0.0  
Since 1 July snowfall 0.0 0.0  
Snow Depth 0.00 in    
Sea Level Pressure  
Sea Level Pressure 30.01 in    
Wind  
Wind Speed 7 mph (SW)    
Max Wind Speed 35 mph    
Max Gust Speed 45 mph    
Visibility 9 miles    
Events Rain , Thunderstorm    
T = Trace of Precipitation, MM = Missing Value Source: NWS Daily Summary

Daily Weather History Graph

Daily Weather History Graph

Search for Another Location

Airport or City:

Trip Planner

Search our weather history database for the weather conditions in past years. The results will help you decide how hot, cold, wet, or windy it might be!

Date:

Astronomy

Jul. 13, 2014 Rise Set
Actual Time 5:51 AM EDT 8:33 PM EDT
Civil Twilight 5:19 AM EDT 9:04 PM EDT
Nautical Twilight 4:40 AM EDT 9:43 PM EDT
Astronomical Twilight 3:56 AM EDT 10:28 PM EDT
Moon 9:20 PM EDT (7/13) 7:18 AM EDT (7/13)
Length of Visible Light 15h 44m
Length of Day
14h 41m
Full, 98% of the Moon is Illuminated
Jul 13
Full
Jul 18
Last Quarter
Jul 26
New
Aug 3
First Quarter
Aug 10
Full

Hourly Weather History & Observations

Time (EDT) Temp. Heat Index Dew Point Humidity Pressure Visibility Wind Dir Wind Speed Gust Speed Precip Events Conditions
12:54 AM 73.9 °F - 68.0 °F 82% 30.12 in 10.0 mi South 5.8 mph - N/A   Mostly Cloudy
1:54 AM 73.0 °F - 69.1 °F 87% 30.10 in 10.0 mi South 3.5 mph - N/A   Mostly Cloudy
2:54 AM 73.0 °F - 69.1 °F 87% 30.08 in 10.0 mi SSW 5.8 mph - N/A   Overcast
3:54 AM 73.0 °F - 69.1 °F 87% 30.08 in 10.0 mi South 3.5 mph - N/A   Overcast
4:54 AM 73.0 °F - 69.1 °F 87% 30.08 in 10.0 mi SSW 4.6 mph - N/A   Mostly Cloudy
5:54 AM 73.0 °F - 69.1 °F 87% 30.06 in 10.0 mi Variable 4.6 mph - N/A   Mostly Cloudy
6:54 AM 73.0 °F - 69.1 °F 87% 30.06 in 10.0 mi SW 3.5 mph - N/A   Mostly Cloudy
7:54 AM 75.0 °F - 70.0 °F 84% 30.06 in 10.0 mi SSW 5.8 mph - N/A   Mostly Cloudy
8:54 AM 78.1 °F - 70.0 °F 76% 30.05 in 10.0 mi SSW 9.2 mph - N/A   Mostly Cloudy
9:54 AM 82.0 °F 85.9 °F 70.0 °F 67% 30.04 in 9.0 mi WSW 9.2 mph - N/A   Mostly Cloudy
10:54 AM 84.0 °F 88.4 °F 70.0 °F 63% 30.02 in 9.0 mi SW 8.1 mph - N/A   Scattered Clouds
11:54 AM 88.0 °F 92.9 °F 70.0 °F 55% 30.01 in 10.0 mi SSW 9.2 mph - N/A   Mostly Cloudy
12:54 PM 89.1 °F 92.9 °F 68.0 °F 50% 30.00 in 10.0 mi SW 6.9 mph 16.1 mph N/A   Mostly Cloudy
1:54 PM 91.0 °F 95.2 °F 68.0 °F 47% 29.98 in 10.0 mi SW 8.1 mph - N/A   Mostly Cloudy
2:54 PM 90.0 °F 94.5 °F 69.1 °F 50% 29.96 in 10.0 mi SW 8.1 mph - N/A   Mostly Cloudy
3:54 PM 90.0 °F 93.6 °F 68.0 °F 48% 29.94 in 10.0 mi WSW 6.9 mph - N/A   Mostly Cloudy
4:54 PM 89.1 °F 92.9 °F 68.0 °F 50% 29.91 in 10.0 mi SSW 5.8 mph - N/A   Mostly Cloudy
5:54 PM 90.0 °F 95.4 °F 70.0 °F 52% 29.90 in 10.0 mi South 10.4 mph - N/A   Mostly Cloudy
7:54 PM 86.0 °F 90.1 °F 69.1 °F 57% 29.90 in 10.0 mi South 5.8 mph - N/A   Mostly Cloudy
8:54 PM 84.9 °F 89.4 °F 70.0 °F 61% 29.91 in 10.0 mi Variable 4.6 mph - N/A   Mostly Cloudy
9:54 PM 75.0 °F - 64.9 °F 71% 29.99 in 8.0 mi WNW 24.2 mph 44.9 mph 0.00 in Rain , Thunderstorm Light Thunderstorms and Rain
10:01 PM 71.6 °F - 66.2 °F 83% 30.00 in 5.0 mi West 26.5 mph 36.8 mph 0.00 in Rain , Thunderstorm Thunderstorms and Rain
10:11 PM 71.6 °F - 68.0 °F 88% 30.00 in 1.5 mi WNW 17.3 mph 36.8 mph 0.09 in Rain , Thunderstorm Heavy Thunderstorms and Rain
10:32 PM 71.6 °F - 68.0 °F 88% 29.99 in 6.0 mi WSW 3.5 mph - 0.29 in Rain , Thunderstorm Light Thunderstorms and Rain
10:54 PM 71.1 °F - 68.0 °F 90% 29.97 in 6.0 mi Calm Calm - 0.31 in Rain Light Rain
11:54 PM 72.0 °F - 69.1 °F 91% 29.95 in 9.0 mi Calm Calm - 0.04 in Rain Light Rain